Rochelle, IL

8:29 PM CST on November 12, 2019 (GMT -0600)
Rochelle

Weather History for KRPJ - August, 2019

Change the Weather History Date:

Saturday, August 31, 2019

  Actual Average (WUND) Record (WUND)
Temperature  
Mean Temperature 62 °F -  
Max Temperature 73 °F - - (-1)
Min Temperature 51 °F - - (-1)
Degree Days  
Heating Degree Days 4    
Growing Degree Days 12 (Base 50)    
Moisture  
Dew Point 56 °F    
Average Humidity 79    
Maximum Humidity 100    
Minimum Humidity 49    
Precipitation  
Precipitation 0.04 in - - ()
Sea Level Pressure  
Sea Level Pressure 30.25 in    
Wind  
Wind Speed 3 mph ()    
Max Wind Speed 13 mph    
Max Gust Speed 18 mph    
Visibility 10.0 miles    
Events Rain    
Averages and records for this station are not official NWS values.
T = Trace of Precipitation, MM = Missing Value Source: Averaged Metar Reports

Daily Weather History Graph

Daily Weather History Graph

Search for Another Location

Airport or City:

Astronomy

Aug. 31, 2019 Rise Set
Actual Time 6:20 AM CDT 7:31 PM CDT
Civil Twilight 5:52 AM CDT 8:00 PM CDT
Nautical Twilight 5:17 AM CDT 8:34 PM CDT
Astronomical Twilight 4:41 AM CDT 9:10 PM CDT
Moon 7:37 AM CDT (8/31) 8:43 PM CDT (8/31)
Length of Visible Light 14h 08m
Length of Day
13h 11m
New Moon, 3% of the Moon is Illuminated
Aug 31
New Moon
Sep 5
First Quarter
Sep 13
Full
Sep 21
Last Quarter
Sep 28
New

Hourly Weather History & Observations

Time (CDT) Temp. Dew Point Humidity Pressure Visibility Wind Dir Wind Speed Gust Speed Precip Events Conditions
12:15 AM 51.3 °F 50.9 °F 99% 30.25 in 10.0 mi Calm Calm - N/A   Clear
12:35 AM 51.3 °F 51.3 °F 100% 30.24 in 10.0 mi Calm Calm - N/A   Clear
12:55 AM 52.2 °F 51.8 °F 99% 30.25 in 10.0 mi Calm Calm - N/A   Clear
1:15 AM 54.0 °F 52.2 °F 94% 30.26 in 10.0 mi Calm Calm - N/A   Clear
1:35 AM 53.6 °F 53.1 °F 98% 30.26 in 10.0 mi Calm Calm - N/A   Clear
1:55 AM 54.1 °F 53.6 °F 98% 30.26 in 10.0 mi Calm Calm - N/A   Clear
2:15 AM 55.8 °F 53.1 °F 91% 30.25 in 10.0 mi Calm Calm - N/A   Clear
2:35 AM 55.8 °F 53.2 °F 91% 30.25 in 10.0 mi East 3.5 mph - N/A   Clear
2:55 AM 55.4 °F 53.6 °F 94% 30.25 in 10.0 mi Calm Calm - N/A   Clear
3:15 AM 55.9 °F 53.8 °F 92% 30.26 in 10.0 mi Calm Calm - N/A   Clear
3:35 AM 56.3 °F 53.6 °F 91% 30.26 in 10.0 mi Calm Calm - N/A   Clear
3:55 AM 55.8 °F 54.3 °F 95% 30.26 in 10.0 mi Calm Calm - N/A   Clear
4:15 AM 55.9 °F 54.5 °F 95% 30.26 in 10.0 mi Calm Calm - N/A   Clear
4:35 AM 55.9 °F 54.9 °F 96% 30.26 in 10.0 mi Calm Calm - N/A   Clear
4:55 AM 55.8 °F 54.7 °F 96% 30.28 in 10.0 mi Calm Calm - N/A   Clear
5:15 AM 56.3 °F 54.5 °F 94% 30.27 in 10.0 mi Calm Calm - N/A   Clear
5:35 AM 56.1 °F 54.9 °F 96% 30.28 in 10.0 mi Calm Calm - N/A   Clear
5:55 AM 55.6 °F 54.5 °F 96% 30.28 in 10.0 mi Calm Calm - N/A   Clear
6:15 AM 54.7 °F 53.8 °F 97% 30.29 in 10.0 mi Calm Calm - N/A   Scattered Clouds
6:35 AM 54.5 °F 53.8 °F 97% 30.29 in 10.0 mi Calm Calm - N/A   Mostly Cloudy
6:55 AM 54.3 °F 53.8 °F 98% 30.30 in 10.0 mi Calm Calm - N/A   Mostly Cloudy
7:15 AM 54.5 °F 54.0 °F 98% 30.30 in 10.0 mi Calm Calm - N/A   Clear
7:40 AM 57.2 °F 55.6 °F 94% 30.29 in 10.0 mi Calm Calm - N/A   Clear
7:55 AM 57.2 °F 55.6 °F 94% 30.29 in 10.0 mi Calm Calm - N/A   Scattered Clouds
8:15 AM 57.6 °F 56.1 °F 95% 30.28 in 10.0 mi East 4.6 mph - N/A   Scattered Clouds
8:35 AM 61.0 °F 56.7 °F 86% 30.28 in 10.0 mi ENE 6.9 mph - N/A   Scattered Clouds
8:55 AM 62.6 °F 56.5 °F 80% 30.28 in 10.0 mi ENE 6.9 mph - N/A   Clear
9:15 AM 64.4 °F 55.4 °F 73% 30.29 in 10.0 mi East 9.2 mph - N/A   Clear
9:35 AM 65.5 °F 55.8 °F 71% 30.28 in 10.0 mi ENE 9.2 mph - N/A   Clear
9:55 AM 66.4 °F 55.2 °F 67% 30.28 in 10.0 mi East 10.4 mph - N/A   Clear
10:15 AM 66.4 °F 52.5 °F 61% 30.28 in 10.0 mi East 12.7 mph - N/A   Scattered Clouds
10:35 AM 66.9 °F 53.8 °F 63% 30.29 in 10.0 mi East 11.5 mph - N/A   Overcast
10:55 AM 68.2 °F 55.2 °F 63% 30.27 in 10.0 mi East 12.7 mph - N/A   Mostly Cloudy
11:10 AM 68.5 °F 54.1 °F 60% 30.28 in 10.0 mi East 11.5 mph 18.4 mph N/A   Mostly Cloudy
11:35 AM 69.6 °F 54.5 °F 59% 30.28 in 10.0 mi ESE 11.5 mph - N/A   Mostly Cloudy
11:55 AM 70.9 °F 55.8 °F 59% 30.28 in 10.0 mi ESE 9.2 mph - N/A   Scattered Clouds
12:20 PM 70.9 °F 55.4 °F 58% 30.27 in 10.0 mi ESE 6.9 mph - N/A   Clear
12:35 PM 71.6 °F 55.8 °F 57% 30.28 in 10.0 mi East 9.2 mph - N/A   Clear
12:55 PM 72.7 °F 54.5 °F 53% 30.27 in 10.0 mi ESE 10.4 mph - N/A   Clear
1:15 PM 72.7 °F 54.1 °F 52% 30.26 in 10.0 mi SE 6.9 mph - N/A   Clear
1:35 PM 72.7 °F 53.6 °F 51% 30.26 in 10.0 mi ESE 8.1 mph - N/A   Scattered Clouds
1:55 PM 72.1 °F 52.2 °F 49% 30.26 in 10.0 mi East 4.6 mph - N/A   Mostly Cloudy
2:15 PM 72.0 °F 53.4 °F 52% 30.26 in 10.0 mi East 5.8 mph - N/A   Overcast
2:35 PM 71.4 °F 53.6 °F 53% 30.26 in 10.0 mi ENE 8.1 mph - N/A   Overcast
2:55 PM 72.0 °F 53.8 °F 53% 30.24 in 10.0 mi ENE 6.9 mph - N/A   Overcast
3:15 PM 72.7 °F 53.2 °F 50% 30.24 in 10.0 mi East 6.9 mph - N/A   Overcast
3:35 PM 72.3 °F 54.1 °F 53% 30.24 in 10.0 mi East 5.8 mph - N/A   Overcast
3:55 PM 72.3 °F 55.0 °F 54% 30.23 in 10.0 mi East 8.1 mph - N/A   Overcast
4:15 PM 71.8 °F 53.4 °F 52% 30.23 in 10.0 mi ENE 8.1 mph - N/A   Overcast
4:35 PM 72.3 °F 54.1 °F 53% 30.22 in 10.0 mi ENE 9.2 mph - N/A   Overcast
4:55 PM 71.8 °F 54.3 °F 54% 30.22 in 10.0 mi ENE 9.2 mph - N/A   Mostly Cloudy
5:15 PM 71.8 °F 54.1 °F 54% 30.22 in 10.0 mi East 5.8 mph - N/A   Mostly Cloudy
5:35 PM 71.1 °F 55.6 °F 58% 30.21 in 10.0 mi East 4.6 mph - N/A   Mostly Cloudy
5:55 PM 70.2 °F 56.3 °F 61% 30.21 in 10.0 mi East 4.6 mph - N/A   Overcast
6:15 PM 69.6 °F 56.5 °F 63% 30.21 in 10.0 mi East 3.5 mph - N/A   Overcast
6:35 PM 67.5 °F 59.2 °F 75% 30.21 in 10.0 mi South 4.6 mph - N/A   Overcast
6:55 PM 65.5 °F 58.5 °F 78% 30.22 in 10.0 mi SSE 3.5 mph - N/A   Overcast
7:15 PM 64.4 °F 60.4 °F 87% 30.21 in 10.0 mi East 4.6 mph - N/A Rain Light Rain
7:35 PM 63.7 °F 60.4 °F 89% 30.21 in 10.0 mi ENE 3.5 mph - N/A   Overcast
7:55 PM 64.2 °F 59.9 °F 86% 30.21 in 10.0 mi ENE 6.9 mph - N/A   Overcast
8:15 PM 63.9 °F 60.1 °F 87% 30.21 in 10.0 mi ENE 3.5 mph - N/A   Overcast
8:35 PM 64.0 °F 59.9 °F 86% 30.21 in 10.0 mi NE 6.9 mph - N/A   Overcast
8:55 PM 64.0 °F 59.2 °F 84% 30.22 in 10.0 mi ENE 5.8 mph - N/A Rain Light Rain
9:15 PM 63.1 °F 59.4 °F 87% 30.22 in 10.0 mi East 4.6 mph - N/A Rain Rain
9:35 PM 62.1 °F 60.4 °F 94% 30.22 in 7.0 mi East 5.8 mph - 0.01 in Rain Rain
9:55 PM 61.3 °F 60.3 °F 96% 30.21 in 10.0 mi East 8.1 mph - 0.02 in Rain Light Rain
10:15 PM 61.5 °F 60.3 °F 96% 30.22 in 10.0 mi East 5.8 mph - 0.01 in Rain Rain
10:35 PM 61.3 °F 60.1 °F 96% 30.22 in 10.0 mi East 4.6 mph - 0.02 in Rain Light Rain
10:55 PM 62.1 °F 59.7 °F 92% 30.21 in 10.0 mi East 8.1 mph - 0.02 in Rain Light Rain
11:15 PM 62.1 °F 59.4 °F 91% 30.21 in 10.0 mi East 10.4 mph - N/A   Light Drizzle
11:35 PM 62.1 °F 59.9 °F 93% 30.21 in 10.0 mi East 8.1 mph - N/A   Overcast
11:55 PM 61.9 °F 60.4 °F 95% 30.21 in 10.0 mi East 9.2 mph - N/A   Light Drizzle